Regional Weather Roundup
Issued by NWS

Home | Current Version | Previous Version | Text Only | Print | Product List | Glossary On
Versions: 1 2 3 4 5 6 7 8 9 10 11 12 13 14 15 16 17 18 19 20 21 22 23 24 25 26 27 28 29 30 31 32 33 34 35 36 37 38 39 40 41 42 43 44 45 46 47 48 49 50
221
ASUS43 KTOP 120608
RWRKS

WEATHER ROUNDUP FOR KANSAS
NATIONAL WEATHER SERVICE GOODLAND KS
1200 AM CST FRI FEB 12 2016

NOTE:  "FAIR" INDICATES FEW OR NO CLOUDS BELOW 12,000 FEET WITH NO
SIGNIFICANT WEATHER AND/OR OBSTRUCTIONS TO VISIBILITY.

KSZ001>006-013>018-027>032-041>047-120700-
NORTHWEST KANSAS

CITY           SKY/WX    TMP DP  RH WIND       PRES   REMARKS
GOODLAND       CLOUDY    32  27  81 NW8       30.24R
6HR MIN TEMP:  32; 6HR MAX TEMP:  48;

HAYS           CLEAR     30  19  64 W8        30.17R
HILL CITY      CLEAR     38  31  76 W9        30.19R
6HR MIN TEMP:  30; 6HR MAX TEMP:  44;

RUSSELL        CLEAR     30  27  88 W7        30.17R
6HR MIN TEMP:  28; 6HR MAX TEMP:  39;

$$

KSZ061>065-074>080-084>089-120700-
SOUTHWEST KANSAS

CITY           SKY/WX    TMP DP  RH WIND       PRES   REMARKS
DODGE CITY     CLOUDY    34  26  72 NW8       30.20R
6HR MIN TEMP:  34; 6HR MAX TEMP:  54;

ELKHART          N/A     40  22  49 N8          N/A
GARDEN CITY    CLOUDY    35  28  75 N10       30.20S WCI  27
6HR MIN TEMP:  34; 6HR MAX TEMP:  60;

GREAT BEND     CLEAR     30  21  69 SW7       30.17S
LIBERAL        CLOUDY    43  25  49 NE10      30.21S
PRATT          PTCLDY    27  23  85 SW8       30.18S
6HR MIN TEMP:  27; 6HR MAX TEMP:  46;

$$

KSZ066>073-081>083-090>101-120700-
SOUTHEAST KANSAS

CITY           SKY/WX    TMP DP  RH WIND       PRES   REMARKS
CHANUTE        CLEAR     27  22  81 S6        30.17F
6HR MIN TEMP:  26; 6HR MAX TEMP:  41;

COFFEYVILLE    CLEAR     27  23  85 S3        30.19F
6HR MIN TEMP:  27; 6HR MAX TEMP:  44;

HUTCHINSON     CLEAR     30  24  78 CALM      30.18S
6HR MIN TEMP:  26; 6HR MAX TEMP:  42;

MEDICINE LODGE   N/A     33  27  78 CALM      30.19S
NEWTON         CLOUDY    36  23  60 SW7       30.18S
PARSONS        CLEAR     25  22  88 CALM      30.20S
6HR MIN TEMP:  24; 6HR MAX TEMP:  45;

WICHITA INTL   PTCLDY    28  23  81 S6        30.18S
6HR MIN TEMP:  28; 6HR MAX TEMP:  45;

WICHITA JABRA  CLOUDY    34  25  69 S3        30.18R
6HR MIN TEMP:  30; 6HR MAX TEMP:  43;

WICHITA MCCONL CLEAR     32  25  75 SW5       30.17F
WINFIELD       CLEAR     30  22  72 CALM      30.20R
6HR MIN TEMP:  28; 6HR MAX TEMP:  49;

$$

KSZ007>012-019>026-033>040-048>060-102>105-120700-
NORTHEAST KANSAS

CITY           SKY/WX    TMP DP  RH WIND       PRES   REMARKS
CONCORDIA      CLOUDY    28  24  85 W10       30.18S WCI  19
6HR MIN TEMP:  27; 6HR MAX TEMP:  32;

EMPORIA        CLOUDY    29  23  78 S10       30.15F WCI  20
6HR MIN TEMP:  27; 6HR MAX TEMP:  38;

LAWRENCE       CLEAR     24  19  81 E5        30.18R
6HR MIN TEMP:  23; 6HR MAX TEMP:  36;

MANHATTAN      CLEAR     26  23  88 CALM      30.18R
6HR MIN TEMP:  25; 6HR MAX TEMP:  39;

MARYSVILLE     CLEAR     27  25  93 N5        30.19S
OLATHE IND     CLEAR     27  21  78 E5        30.17R
6HR MIN TEMP:  27; 6HR MAX TEMP:  35;

OLATHE EXE     CLEAR     30  20  66 E3        30.16S
6HR MIN TEMP:  29; 6HR MAX TEMP:  35;

SALINA         CLOUDY    31  24  75 S3        30.18R
6HR MIN TEMP:  29; 6HR MAX TEMP:  42;

TOPEKA BILLARD CLEAR     29  21  72 N3        30.18R
6HR MIN TEMP:  29; 6HR MAX TEMP:  39;

TOPEKA FORBES  CLEAR     31  22  69 SW3       30.15S
6HR MIN TEMP:  29; 6HR MAX TEMP:  38;

$$




USA.gov is the U.S. government's official web portal to all federal, state and local government web resources and services.